| time (UTC) | temp F | wind direction | speed knots | gust knots | rain 1hr in | rain 24hr in | rain mn in | humidity % | barometer mb |
| 20260502163028 | 85 | 91 | 1.7 | 16.5 | 0.00 | 0.00 | 0.00 | 70 | 1009.8 |
| 20260502161530 | 84 | 96 | 2.6 | 17.4 | 0.00 | 0.00 | 0.00 | 72 | 1009.8 |
| 20260502151537 | 80 | 20 | 8.7 | 19.1 | 0.00 | 0.00 | 0.00 | 73 | 1010.2 |
| 20260502123043 | 74 | 352 | 5.2 | 7.8 | 0.00 | 0.00 | 0.00 | 95 | 1009.8 |
| 20260502121536 | 73 | 337 | 4.3 | 7.0 | 0.00 | 0.00 | 0.00 | 95 | 1009.7 |
| 20260502114530 | 72 | 22 | 2.6 | 4.3 | 0.00 | 0.00 | 0.00 | 96 | 1009.6 |
| 20260502113035 | 71 | 10 | 2.6 | 4.3 | 0.00 | 0.00 | 0.00 | 97 | 1009.6 |
| 20260502111544 | 71 | 22 | 2.6 | 5.2 | 0.00 | 0.00 | 0.00 | 97 | 1009.4 |
| 20260502110032 | 71 | 23 | 2.6 | 4.3 | 0.00 | 0.00 | 0.00 | 97 | 1008.9 |
| 20260502104531 | 70 | 0 | 0.0 | 2.6 | 0.00 | 0.00 | 0.00 | 96 | 1008.7 |
| 20260502103029 | 70 | 0 | 0.0 | 0.9 | 0.00 | 0.00 | 0.00 | 96 | 1008.6 |
| 20260502101530 | 70 | 0 | 0.0 | 1.7 | 0.00 | 0.00 | 0.00 | 96 | 1008.8 |
| 20260502091529 | 70 | 0 | 0.0 | 0.0 | 0.00 | 0.00 | 0.00 | 94 | 1009.6 |
| 20260502071534 | 72 | 0 | 0.0 | 0.0 | 0.00 | 0.00 | 0.00 | 90 | 1009.7 |
| 20260502070037 | 72 | 0 | 0.0 | 0.0 | 0.00 | 0.00 | 0.00 | 90 | 1009.6 |
| 20260502064532 | 73 | 0 | 0.0 | 1.7 | 0.00 | 0.00 | 0.00 | 90 | 1009.9 |
| 20260502063030 | 73 | 0 | 0.0 | 0.9 | 0.00 | 0.00 | 0.00 | 89 | 1010.2 |
| 20260502061530 | 73 | 0 | 0.0 | 1.7 | 0.00 | 0.00 | 0.00 | 88 | 1010.0 |
| 20260502060031 | 73 | 0 | 0.0 | 0.0 | 0.00 | 0.00 | 0.00 | 87 | 1010.3 |
| 20260502054532 | 73 | 0 | 0.0 | 0.9 | 0.00 | 0.00 | 0.00 | 87 | 1010.3 |
| 20260502053047 | 73 | 0 | 0.0 | 0.0 | 0.00 | 0.00 | 0.00 | 88 | 1010.4 |
| 20260502051534 | 73 | 0 | 0.0 | 0.0 | 0.00 | 0.00 | 0.00 | 89 | 1010.5 |
| 20260502050032 | 74 | 0 | 0.0 | 0.0 | 0.00 | 0.00 | 0.00 | 91 | 1010.5 |
| 20260502044531 | 74 | 0 | 0.0 | 0.0 | 0.00 | 0.00 | 0.00 | 91 | 1010.4 |
| 20260502043040 | 74 | 0 | 0.0 | 0.0 | 0.00 | 0.00 | 0.00 | 90 | 1010.2 |
| 20260502041533 | 75 | 0 | 0.0 | 0.9 | 0.00 | 0.00 | 0.00 | 89 | 1010.3 |
| 20260502040034 | 76 | 0 | 0.0 | 0.0 | 0.00 | 0.00 | 0.00 | 88 | 1010.3 |
| 20260502034530 | 76 | 0 | 0.0 | 0.0 | 0.00 | 0.00 | 0.00 | 87 | 1010.5 |
| 20260502033029 | 76 | 0 | 0.0 | 0.0 | 0.00 | 0.00 | 0.00 | 86 | 1010.7 |
| 20260502031530 | 77 | 0 | 0.0 | 0.0 | 0.00 | 0.00 | 0.00 | 86 | 1010.5 |
| 20260502030030 | 77 | 0 | 0.0 | 1.7 | 0.00 | 0.00 | 0.00 | 86 | 1010.6 |
| 20260502024532 | 78 | 0 | 0.0 | 0.0 | 0.00 | 0.00 | 0.00 | 85 | 1010.5 |
| 20260502023034 | 78 | 0 | 0.0 | 3.5 | 0.00 | 0.00 | 0.00 | 84 | 1010.6 |
| 20260502021534 | 78 | 242 | 0.9 | 2.6 | 0.00 | 0.00 | 0.00 | 83 | 1010.5 |
| 20260502020030 | 79 | 216 | 1.7 | 4.3 | 0.00 | 0.00 | 0.00 | 83 | 1010.6 |
| 20260502014529 | 79 | 0 | 1.7 | 3.5 | 0.00 | 0.00 | 0.00 | 83 | 1010.5 |
| 20260502013033 | 79 | 231 | 0.9 | 3.5 | 0.00 | 0.00 | 0.00 | 82 | 1010.4 |
| 20260502011534 | 80 | 214 | 2.6 | 6.1 | 0.00 | 0.00 | 0.00 | 81 | 1010.3 |
| 20260502010033 | 80 | 207 | 2.6 | 5.2 | 0.00 | 0.00 | 0.00 | 80 | 1010.3 |
| 20260502004530 | 81 | 240 | 2.6 | 4.3 | 0.00 | 0.00 | 0.00 | 79 | 1010.2 |
| 20260502003031 | 81 | 251 | 2.6 | 6.1 | 0.00 | 0.00 | 0.00 | 78 | 1009.7 |
| 20260502001532 | 82 | 214 | 1.7 | 4.3 | 0.00 | 0.00 | 0.00 | 77 | 1009.3 |
| 20260502000029 | 82 | 221 | 3.5 | 6.1 | 0.00 | 0.00 | 0.00 | 76 | 1009.2 |
| 20260501234535 | 83 | 225 | 0.9 | 7.0 | 0.00 | 0.00 | 0.00 | 74 | 1009.0 |
| 20260501233032 | 86 | 288 | 3.5 | 7.8 | 0.00 | 0.00 | 0.00 | 68 | 1008.8 |
| 20260501231531 | 88 | 134 | 0.0 | 4.3 | 0.00 | 0.00 | 0.00 | 55 | 1008.5 |
| 20260501230032 | 89 | 0 | 0.0 | 7.0 | 0.00 | 0.00 | 0.00 | 53 | 1008.3 |
| 20260501224539 | 90 | 104 | 0.9 | 3.5 | 0.00 | 0.00 | 0.00 | 51 | 1008.2 |
| 20260501223030 | 90 | 0 | 0.9 | 3.5 | 0.00 | 0.00 | 0.00 | 51 | 1008.0 |
| 20260501221536 | 90 | 0 | 1.7 | 5.2 | 0.00 | 0.00 | 0.00 | 53 | 1007.9 |
| 20260501220033 | 91 | 84 | 1.7 | 4.3 | 0.00 | 0.00 | 0.00 | 50 | 1007.8 |
| 20260501214530 | 90 | 96 | 0.9 | 4.3 | 0.00 | 0.00 | 0.00 | 52 | 1008.0 |
| 20260501213035 | 89 | 146 | 0.9 | 4.3 | 0.00 | 0.00 | 0.00 | 52 | 1007.9 |
| 20260501211542 | 89 | 353 | 2.6 | 7.8 | 0.00 | 0.00 | 0.00 | 54 | 1007.9 |
| 20260501210032 | 90 | 0 | 0.0 | 0.0 | 0.00 | 0.00 | 0.00 | 53 | 1007.9 |
| 20260501204535 | 90 | 0 | 0.0 | 9.6 | 0.00 | 0.00 | 0.00 | 54 | 1008.3 |
| 20260501203035 | 90 | 339 | 1.7 | 7.0 | 0.00 | 0.00 | 0.00 | 54 | 1008.4 |
| 20260501201534 | 90 | 347 | 3.5 | 7.0 | 0.00 | 0.00 | 0.00 | 53 | 1008.3 |
| 20260501200034 | 90 | 104 | 1.7 | 5.2 | 0.00 | 0.00 | 0.00 | 51 | 1008.6 |
| 20260501194530 | 89 | 0 | 0.9 | 6.1 | 0.00 | 0.00 | 0.00 | 59 | 1008.9 |
| 20260501193042 | 88 | 337 | 6.1 | 11.3 | 0.00 | 0.00 | 0.00 | 54 | 1009.2 |
| 20260501191532 | 89 | 34 | 2.6 | 7.0 | 0.00 | 0.00 | 0.00 | 55 | 1009.5 |
| 20260501190032 | 89 | 268 | 0.9 | 5.2 | 0.00 | 0.00 | 0.00 | 55 | 1009.9 |
| 20260501184533 | 89 | 350 | 1.7 | 6.1 | 0.00 | 0.00 | 0.00 | 55 | 1010.1 |
| 20260501183032 | 88 | 353 | 1.7 | 7.8 | 0.00 | 0.00 | 0.00 | 56 | 1010.4 |
| 20260501181533 | 88 | 100 | 1.7 | 8.7 | 0.00 | 0.00 | 0.00 | 57 | 1010.6 |